Weather History for KFVE - September, 2012

Change the Weather History Date:

Wednesday, September 12, 2012

  Actual Average Record
Temperature  
Mean Temperature 62 °F 55 °F  
Max Temperature 77 °F 65 °F 78 °F (2003)
Min Temperature 46 °F 46 °F 35 °F (2006)
Degree Days  
Heating Degree Days 3    
Month to date heating degree days 64  
Since 1 July heating degree days 138  
Cooling Degree Days 0    
Month to date cooling degree days 2  
Year to date cooling degree days 198  
Growing Degree Days 10 (Base 50)    
Moisture  
Dew Point 50 °F    
Average Humidity 68    
Maximum Humidity 86    
Minimum Humidity 43    
Precipitation  
Precipitation 0.00 in 0.13 in 0.46 in (2013)
Month to date precipitation 0.51 1.46  
Year to date precipitation 21.42 23.52  
Sea Level Pressure  
Sea Level Pressure 30.20 in    
Wind  
Wind Speed 6 mph (SSW)    
Max Wind Speed 15 mph    
Max Gust Speed 20 mph    
Visibility 10 miles    
Events      
T = Trace of Precipitation, MM = Missing Value Source: NWS Daily Summary

Daily Weather History Graph

Daily Weather History Graph

Search for Another Location

Airport or City:

Trip Planner

Search our weather history database for the weather conditions in past years. The results will help you decide how hot, cold, wet, or windy it might be!

Date:

Astronomy

Sep. 12, 2012 Rise Set
Actual Time 6:07 AM EDT 6:50 PM EDT
Civil Twilight 5:36 AM EDT 7:21 PM EDT
Nautical Twilight 4:59 AM EDT 7:57 PM EDT
Astronomical Twilight 4:20 AM EDT 8:36 PM EDT
Moon 2:08 AM EDT (9/12) 4:45 PM EDT (9/12)
Length of Visible Light 13h 44m
Length of Day
12h 43m
Waning Crescent, 14% of the Moon is Illuminated
Sep 12
Waning Crescent
Sep 15
New
Sep 22
First Quarter
Sep 29
Full
Oct 8
Last Quarter

Hourly Weather History & Observations

Time (EDT) Temp. Dew Point Humidity Pressure Visibility Wind Dir Wind Speed Gust Speed Precip Events Conditions
12:53 AM 51.1 °F 44.1 °F 77% 30.16 in 10.0 mi Calm Calm - N/A   Clear
1:53 AM 48.9 °F 43.0 °F 80% 30.17 in 10.0 mi South 4.6 mph - N/A   Clear
2:53 AM 48.9 °F 43.0 °F 80% 30.18 in 10.0 mi SW 3.5 mph - N/A   Clear
3:53 AM 48.9 °F 43.0 °F 80% 30.19 in 10.0 mi Calm Calm - N/A   Clear
4:53 AM 48.0 °F 43.0 °F 83% 30.19 in 10.0 mi South 3.5 mph - N/A   Clear
5:53 AM 46.9 °F 43.0 °F 86% 30.21 in 10.0 mi SSW 4.6 mph - N/A   Clear
6:53 AM 48.9 °F 44.1 °F 83% 30.22 in 10.0 mi South 3.5 mph - N/A   Clear
7:53 AM 50.0 °F 45.0 °F 83% 30.23 in 10.0 mi South 4.6 mph - N/A   Clear
8:53 AM 53.1 °F 46.9 °F 80% 30.24 in 10.0 mi South 5.8 mph - N/A   Clear
9:53 AM 57.9 °F 48.9 °F 72% 30.24 in - North - - N/A   Clear
10:53 AM 63.0 °F 52.0 °F 67% 30.23 in - North - - N/A   Clear
11:32 AM 66.2 °F 53.6 °F 64% 30.23 in - North - - N/A   Partly Cloudy
11:53 AM 66.9 °F 54.0 °F 63% 30.22 in - North - - N/A   Clear
12:53 PM 71.1 °F 55.0 °F 57% 30.22 in 10.0 mi North - - N/A   Clear
1:53 PM 73.9 °F 54.0 °F 50% 30.20 in 10.0 mi North - - N/A   Clear
2:53 PM 75.9 °F 52.0 °F 43% 30.19 in 10.0 mi North - - N/A   Clear
3:53 PM 75.9 °F 52.0 °F 43% 30.18 in 10.0 mi SW 10.4 mph 17.3 mph N/A   Clear
4:53 PM 75.0 °F 52.0 °F 44% 30.18 in 10.0 mi SW 9.2 mph 17.3 mph N/A   Clear
5:53 PM 73.9 °F 51.1 °F 45% 30.17 in 10.0 mi South 5.8 mph - N/A   Clear
6:53 PM 70.0 °F 55.0 °F 59% 30.18 in 10.0 mi South 6.9 mph - N/A   Clear
7:41 PM 68.0 °F 53.6 °F 60% 30.18 in 10.0 mi South 10.4 mph - N/A   Partly Cloudy
7:53 PM 66.9 °F 54.0 °F 63% 30.18 in 10.0 mi South 8.1 mph - N/A   Clear
8:53 PM 64.9 °F 54.0 °F 68% 30.20 in 10.0 mi SSW 6.9 mph - N/A   Clear
9:53 PM 64.0 °F 55.0 °F 73% 30.19 in 10.0 mi South 6.9 mph - N/A   Clear
10:53 PM 62.1 °F 55.0 °F 78% 30.20 in 10.0 mi South 5.8 mph - N/A   Clear
11:53 PM 60.1 °F 54.0 °F 80% 30.19 in 10.0 mi SW 5.8 mph - N/A   Clear